Notices

What's New in latest Release from April 7th, 2021:

- Updated Glossary, including Speed of Maximum Gust, and Total Hourly Precipitation

- Updated national and regional climate services offices contacts and prices information

- Addition of station inventory lists for 1981-2010, 1971-2000, and 1961-1990 Normals.

If you haven't already, please take our survey and provide feedback about our website: https://eccc.sondage-survey.ca/f/LanguageSelection.aspx?s=442ca660-fcf1-47c0-95a9-59707d6fd709

Hourly Data Report for July 20, 2020

OTTAWA INTL A
ONTARIO
Current Station Operator: NAVCAN

45°19'00.000" N
75°40'00.000" W
114.90 m
6106001
71628
YOW

Download Data

Hourly Data (July 2020)
Hourly Data Report for July 20, 2020
TIME
LST
Temp Definition
°C
Dew Point Definition
°C
Rel Hum Definition
%
Precip. Amount Definition
mm

Wind Dir Definition
10's deg

Wind Spd Definition
km/h
Visibility Definition
km
Stn Press Definition
kPa
Hmdx Definition


Wind Chill Definition


Weather Definition


00:00 22.6 21.4 93   21 12 24.1 99.16 31   LegendNANA
01:00 22.1 21.1 94   20 13 16.1 99.14 31   Mainly Clear
02:00 21.9 20.9 94   23 11 16.1 99.16 30   LegendNANA
03:00 21.4 20.7 95   21 13 24.1 99.19 30   LegendNANA
04:00 20.6 20.1 97   23 9 24.1 99.26 28   Mainly Clear
05:00 20.3 19.7 96   22 10 24.1 99.32 28   LegendNANA
06:00 21.1 19.8 92   23 13 24.1 99.37 29   LegendNANA
07:00 22.9 19.8 83   24 17 24.1 99.41 30   Mainly Clear
08:00 24.8 19.0 70   26 17 24.1 99.43 32   LegendNANA
09:00 25.9 19.1 66   22 18 24.1 99.44 33   LegendNANA
10:00 26.7 18.4 60   23 18 24.1 99.39 33   Mainly Clear
11:00 28.4 19.1 56   25 19 24.1 99.40 35   LegendNANA
12:00 28.6 16.1 46   26 25 24.1 99.40 33   LegendNANA
13:00 28.1 16.3 48   28 22 24.1 99.41 33   Mostly Cloudy
14:00 27.4 16.6 51   29 17 24.1 99.44 32   LegendNANA
15:00 26.8 16.8 53   30 22 24.1 99.50 32   LegendNANA
16:00 26.9 17.2 55   30 28 24.1 99.56 32   Mostly Cloudy
17:00 27.3 15.9 49   28 28 24.1 99.61 32   LegendNANA
18:00 25.3 15.3 53   30 23 24.1 99.65 29   LegendNANA
19:00 24.4 15.2 56   28 19 24.1 99.70 28   Mostly Cloudy
20:00 23.6 15.7 61   30 21 24.1 99.77 28   LegendNANA
21:00 22.7 15.6 64   30 15 24.1 99.87 27   LegendNANA
22:00 21.7 15.0 65   30 14 24.1 99.95 26   Mostly Cloudy
23:00 21.3 15.2 68   34 20 24.1 99.98 25   LegendNANA

Notes on Data Quality.

Legend

  • E = Estimated
  • M = Missing
  • NA = Not Available*
  • [empty] = Indicates an unobserved value
Date modified: